Location: Gleizolles
(44.4833°N, 6.7667°E)
Time: 16:35:15
(UTC+00:00)

Altair - Pass Details

Date: 25 June 2024
Orbit: 1502 x 1681 km, 47.2° (Epoch: 13 July)

Event Time Altitude Azimuth Distance (km) Brightness Sun altitude
Rises 06:17:34 0° 293° (WNW) 4,713 9.6 23.4°
Reaches altitude 10° 06:20:38 10° 290° (WNW) 3,750 9.1 23.9°
Maximum altitude 06:29:56 61° 214° (SSW) 1,780 8.0 25.6°
Drops below altitude 10° 06:39:36 10° 137° (SE) 3,878 10.2 27.3°
Sets 06:42:49 0° 134° (SE) 4,882 10.7 27.8°
